www.pogodaiklimat.ru

Погода и климат >> Архив погоды >> Индия >> Орисса >> Бхубанешвар


ПОГОДА в Бхубанешваре

  • Прогноз погоды в Бхубанешваре
  • Монитор погоды в Бхубанешваре

АРХИВ ПОГОДЫ в Бхубанешваре

Время (UTC), дата Ветер
(напр.,м/с)
 
Видим.   Явления Облачность Т
(С)
Тd
(С)
f
(%)
Тe
(С)
Тes
(С)
Комфортность P
(гПа)
Po
(гПа)
Тmin
(С)
Tmax
(С)
R
(мм)
R24
(мм)
S
(см)
18 12.06 В 5 2000 м зарница 8/5 540 м
[Cb calv Ac cuf]
+28.4 +24.1 78 +40 +40 очень
душно
1001.3 996.1
21 12.06 В 3 2000 м зарница 8/5 600 м
[Cb cap Ac trans]
+26.6 +24.3 87 +37 +37 очень
душно
1001.8 996.6 4
00 13.06 З 2 2000 м гроза, ливневой дождь 10/6 480 м
[Cb cap As op]
+24.2 +23.9 98 +33 +33 очень
душно
1004.0 998.7 32
03 13.06 Ю 4 2000 м слаб. дождь {гроза} 10/6 480 м
[Sc As op]
+25.6 +25.3 98 +37 +37 очень
душно
1002.0 996.7 +22.3 34
06 13.06 З 4 4000 м мгла {гроза, дождь} 10/6 540 м
[Sc As op]
+29.4 +26.9 86 +46 +47 опасность
перегрева
1000.0 994.8 0.0
09 13.06 З 2 4000 м 6/3 600 м
[Sc diur, vesp Ac trans]
+33.0 +27.5 73 +52 +59 опасность
перегрева
998.8 993.7 0.0
12 13.06 Ю 3 4000 м 8/3 600 м
[Sc Ac trans]
+32.0 +27.6 78 +52 +52 опасность
перегрева
998.5 993.4 +34.7 0.0
15 13.06 ЮЗ 5 4000 м дымка 4/0
[Ac trans Ci fib]
+29.8 +27.6 88 +48 +48 опасность
перегрева
999.2 994.0 0.0
18 13.06 ЮЗ 5 4000 м гроза без осадков 8/5 600 м
[Cb cap Ac trans]
+29.0 +26.8 88 +45 +45 опасность
перегрева
1000.6 995.4 0.0
21 13.06 СЗ 8 4000 м гроза, ливневой дождь 8/5 600 м
[Cb cap Ac trans]
+29.2 +23.4 71 +40 +40 очень
душно
998.8 993.6 0.2
00 14.06 штиль 0 4000 м в посл. час гроза 9/6 540 м
[Cb calv Ac trans]
+27.8 +24.3 81 +39 +39 очень
душно
999.7 994.5 0.6
03 14.06 Ю 1 4000 м мгла {гроза, дождь} 9/6 600 м
[Sc Ac trans]
+28.0 +26.6 92 +43 +46 опасность
перегрева
1001.2 996.0 +25.5 5
06 14.06 Ю 2 4000 м {гроза, дождь} 3/0
[Ci fib]
+33.8 +27.8 71 +54 +74 опасность
перегрева
999.8 994.7
09 14.06 З 3 4000 м 3/0
[Ac trans Ci fib]
+37.4 +26.7 55 +55 +65 опасность
перегрева
997.1 992.1
12 14.06 ЮЗ 2 2000 м 3/1 600 м
[Sc Ac trans]
+36.0 +29.0 67 +59 +60 опасность
перегрева
996.9 991.8 +38.1
15 14.06 ЮЗ 4 4000 м мгла ясно +31.8 +27.1 76 +50 +50 опасность
перегрева
999.2 994.1
18 14.06 ЮЗ 4 4000 м мгла 3/0
[Ac trans Ci fib]
+31.0 +26.3 76 +47 +47 опасность
перегрева
1000.4 995.2
21 14.06 ЮЗ 3 4000 м мгла 5/0
[Ac trans Ci fib]
+29.2 +25.8 82 +44 +44 опасность
перегрева
998.3 993.1
00 15.06 штиль 0 4000 м мгла 6/3 600 м
[Sc Ac trans Ci fib]
+29.2 +27.0 88 +46 +46 опасность
перегрева
998.7 993.5
03 15.06 ЮЗ 2 4000 м мгла 9/5 600 м
[Sc diur, vesp Ac trans]
+31.6 +28.6 84 +53 +57 опасность
перегрева
1000.4 995.3 +27.6
06 15.06 ЮЗ 2 4000 м мгла 9/6 540 м
[Sc diur, vesp Ac trans]
+33.0 +28.1 76 +54 +59 опасность
перегрева
1000.2 995.1
09 15.06 ЮВ 3 4000 м мгла 9/6 540 м
[Sc diur, vesp Ac trans]
+33.2 +28.0 74 +54 +56 опасность
перегрева
999.0 993.9
12 15.06 Ю 3 4000 м мгла 9/5 540 м
[Sc diur, vesp Ac trans]
+31.6 +28.3 83 +53 +53 опасность
перегрева
998.7 993.6 +34.4
15 15.06 Ю 3 4000 м мгла 9/6 540 м
[Sc diur, vesp Ac trans]
+30.0 +28.6 92 +51 +51 опасность
перегрева
1000.6 995.4
18 15.06 З 3 2000 м гроза, ливневой дождь 9/6 480 м
[Cb cap As op]
+25.0 +25.0 100 +36 +36 очень
душно
1002.2 996.9 4
21 15.06 ЮЗ 5 2000 м в посл. час гроза {дождь} 9/6 540 м
[Cb calv Ac trans]
+28.0 +26.6 92 +43 +43 опасность
перегрева
1001.1 995.9 6
00 16.06 З 2 2000 м мгла {гроза, дождь} 6/3 600 м
[Sc diur, vesp Ac trans]
+26.4 +24.4 89 +37 +37 очень
душно
1000.1 994.9 6
03 16.06 Ю 2 4000 м мгла 8/3 600 м
[Sc diur, vesp Ac trans]
+28.4 +25.0 82 +41 +45 опасность
перегрева
1001.0 995.8 +23.3 6
06 16.06 З 1 4000 м слаб. дождь 10/6 540 м
[Cb calv As op]
+29.2 +26.7 86 +45 +47 опасность
перегрева
1002.0 996.8 0.0
09 16.06 Ю 3 4000 м в посл. час гроза {дождь} 10/6 540 м
[Cb calv As op]
+29.4 +28.0 92 +49 +50 опасность
перегрева
1000.2 995.0 1
12 16.06 Ю 5 4000 м мгла {гроза, дождь} 8/3 540 м
[Sc diur, vesp Ac trans Ci fib]
+30.4 +28.2 88 +51 +51 опасность
перегрева
998.8 993.6 +30.8 1
15 16.06 ЮЗ 2 4000 м дымка 6/3 540 м
[Sc diur, vesp Ac trans Ci fib]
+29.2 +28.1 94 +49 +49 опасность
перегрева
999.9 994.7 1
18 16.06 ЮЗ 3 4000 м дымка 6/4 540 м
[Sc diur, vesp Ac trans]
+28.8 +28.0 95 +47 +47 опасность
перегрева
1000.7 995.5 1
21 16.06 З 1 4000 м дымка 4/1 540 м
[Sc diur, vesp Ac trans]
+28.4 +27.9 97 +47 +47 опасность
перегрева
999.2 994.0 1
00 17.06 СЗ 1 4000 м 3/0
[Ac trans]
+27.8 +25.5 87 +41 +41 опасность
перегрева
999.8 994.6 1
03 17.06 З 4 10 км 3/0
[Ci fib]
+31.4 +25.8 72 +46 +53 опасность
перегрева
1001.2 996.0 +25.9 1
06 17.06 СЗ 4 10 км 5/3 600 м
[Sc Ac trans Ci fib]
+34.2 +24.9 58 +47 +56 опасность
перегрева
1001.6 996.5
09 17.06 СЗ 3 4000 м 8/5 600 м
[Sc Ac trans]
+35.6 +27.1 62 +54 +58 опасность
перегрева
999.5 994.4
12 17.06 З 1 4000 м мгла 6/3 600 м
[Sc diur, vesp Ac trans]
+34.0 +28.0 71 +55 +55 опасность
перегрева
998.7 993.6 +36.2
15 17.06 ЮЗ 2 4000 м мгла 5/1 600 м
[Sc diur, vesp Ac trans]
+31.0 +26.3 76 +47 +47 опасность
перегрева
1000.8 995.6
18 17.06 ЮЗ 2 4000 м мгла 8/4 600 м
[Sc diur, vesp Ac trans]
+30.2 +27.7 87 +49 +49 опасность
перегрева
1001.1 995.9
21 17.06 СЗ 1 4000 м мгла 8/4 600 м
[Sc diur, vesp Ac trans]
+29.6 +28.0 91 +49 +49 опасность
перегрева
999.4 994.2
00 18.06 СЗ 2 4000 м мгла 8/4 600 м
[Sc diur, vesp Ac trans]
+29.8 +25.0 75 +43 +43 опасность
перегрева
999.9 994.7
03 18.06 З 3 4000 м 5/0
[Ac trans Ci fib]
+34.2 +26.4 64 +51 +57 опасность
перегрева
1000.6 995.5 +28.0
06 18.06 СЗ 3 4000 м 8/5 600 м
[Sc diur, vesp Ac trans]
+36.4 +25.2 53 +50 +56 опасность
перегрева
1000.5 995.4
09 18.06 СЗ 2 4000 м мгла 6/5 600 м
[Sc diur, vesp Ac trans]
+33.4 +24.9 61 +47 +53 опасность
перегрева
999.2 994.1
12 18.06 З 2 4000 м мгла 5/0
[Ac trans Ci fib]
+35.0 +28.2 68 +56 +57 опасность
перегрева
997.3 992.2 +36.8
15 18.06 ЮЗ 6 4000 м зарница 8/4 600 м
[Cb calv Ac trans]
+31.8 +26.5 74 +49 +49 опасность
перегрева
1000.5 995.4
18 18.06 ЮЗ 3 4000 м в посл. час гроза {дождь} 6/4 600 м
[Sc Ac trans]
+29.8 +24.7 74 +42 +42 опасность
перегрева
1000.9 995.7 0.0
21 18.06 З 1 4000 м мгла 8/4 600 м
[Sc Ac trans]
+28.2 +25.1 83 +41 +41 опасность
перегрева
999.8 994.6 0.0
00 19.06 ЮЗ 2 4000 м 6/3 600 м
[Sc Ac trans Ci fib]
+27.8 +25.2 86 +40 +41 очень
душно
999.8 994.6 0.0
03 19.06 СЗ 1 4000 м 3/0
[Ac trans]
+32.4 +26.3 70 +49 +59 опасность
перегрева
1000.7 995.6 +26.4 0.0
06 19.06 СЗ 2 4000 м 6/0
[Ac trans Ci fib]
+35.6 +27.1 62 +54 +70 опасность
перегрева
1000.3 995.2
09 19.06 З 1 4000 м 8/1 600 м
[Sc Ac trans Ci fib]
+37.0 +26.5 55 +53 +62 опасность
перегрева
997.6 992.6
12 19.06 Ю 3 4000 м мгла 9/4 600 м
[Sc diur, vesp Ac trans Ci fib]
+33.8 +27.5 70 +53 +54 опасность
перегрева
998.1 993.0 +37.7

 

Местоположение метеостанции Бхубанешвар (Орисса, Индия): широта 20.25 долгота 85.83 высота над уровнем моря 46 м.

В архиве по умолчанию представлена погода в Бхубанешваре за последнюю неделю. Архивные данные за месяц целиком и за предыдущие месяцы, начиная с января 2011 года, Вы можете получить, выбрав интересующий диапазон дат из раскрывающегося списка и нажав кнопку "Ввод!".


*Определитесь, кто Вы:
робот инопланетянин человек

Внимание! Время в таблицах - всемирное. Для получения местного времени необходимо прибавить поправку, которая равна 5.5 ч.

Смотрите также архив погоды в соседних городах и на ближайших метеорологических станциях:

Погода в Каттаке (Орисса, Индия) (27 км)
Погода в Пури (Орисса, Индия) (50 км)
Погода в Парадипе (Орисса, Индия) (89 км)
Погода в Ангуле (Орисса, Индия) (100 км)
Погода в Чандбали (Орисса, Индия) (111 км)
Погода в Гопалпере (Орисса, Индия) (148 км)
Погода в Кендуджхаре (Орисса, Индия) (156 км)
Погода в Пхулбани (Орисса, Индия) (165 км)
Погода в Баласоре (Орисса, Индия) (182 км)
Погода в Барипаде (Орисса, Индия) (211 км)

Пояснения к столбцам:

Ветер - указаны скорость ветра в м/с - средняя за 10 мин, порывы в срок и между сроками (в фигурных скобках) и направление, откуда дует ветер: С - северный, СВ - северо-восточный, В - восточный, ЮВ - юго-восточный, Ю - южный, ЮЗ - юго-западный, З - западный, СЗ - северо-западный.
Видимость - горизонтальная дальность видимости в метрах или километрах. При видимости от 1 до 10 км при отсутствии осадков обычно наблюдается дымка, при ухудшении видимости до 1 км и менее - туман. В сухую погоду видимость может ухудшаться дымом, пылью или мглою.
Явления - указаны атмосферные явления, наблюдавшиеся в срок или в последний час перед сроком; фигурными скобками обозначены явления, наблюдавшиеся между сроками (за 1-3 часа до срока); квадратными скобками обозначены град или гололедные отложения с указанием их диаметра в мм.
Облачность - указаны через наклонную черту общая и нижняя облачность в баллах и высота нижней границы облаков в метрах; квадратными скобками обозначены формы облаков: Ci - перистые, Cs - перисто-слоистые, Cc - перисто-кучевые, Ac - высококучевые, As - высокослоистые, Sc - слоисто-кучевые, Ns - слоисто-дождевые, Cu - кучевые, Cb - кучево-дождевые. Подробнее классификацию облаков см. в Атласе облаков (PDF).
T - Температура воздуха - температура, измеренная на высоте 2 м над землей.
Td - Температура точки росы - температура, при понижении до которой содержащийся в воздухе водяной пар достигнет насыщения.
f - Относительная влажность воздуха - влажноcть воздуха, измеренная на высоте 2 м над землей.
Te - Эффективная температура - температура, которую ощущает одетый по сезону человек в тени. Характеристика душности погоды. При расчете учитывается влияние влажности воздуха и скорости ветра на теплоощущения человека.
Tes - Эффективная температура на солнце - температура, которую ощущает человек, с поправкой на солнечный нагрев. Характеристика знойности погоды. Зависит от высоты солнца над горизонтом, облачности и скорости ветра. Ночью, в пасмурную погоду, а также при ветре 12 м/с и более поправка равна нулю.
P - Атмосферное давление - приведенное к уровню моря атмосферное давление.
Po - Атмосферное давление - измеренное на уровне метеостанции атмосферное давление.
Tmin - Минимальная температура - минимум температуры воздуха на высоте 2 м над землей.
Tmax - Максимальная температура - максимум температуры воздуха на высоте 2 м над землей.
R - Количество осадков - Количество выпавших осадков за период времени, мм. При наведении курсора мыши на число - период времени, за который выпало указанное количество осадков.
R24 - Количество осадков - Количество выпавших осадков за 24 часа, мм.
S - Снежный покров - Высота снежного покрова, см. При наведении курсора мыши на число - состояние снежного покрова и степень покрытия местности в баллах.